sat.trackr.live / text

‹ back to catalog

STARLINK-3823

NORAD 52336 · 2022-045F

PAYLOAD ACTIVE UNKNOWN

§ Identity

Operator
Country
US
Launch date
2022-04-29
Launch site
AFETR
Launch vehicle
Mass (kg)
RCS (m²)

Purposes: comms

External: N2YO · Heavens-Above · Gunter

§ Orbital elements

Epoch: 2026-05-24T22:09:02.831616Z

Period
95.44 min
Inclination
53.2126°
Eccentricity
0.0001559
Mean motion
15.08821119 rev/d
Perigee alt
538.7 km
Apogee alt
540.9 km
Semi-major
6,917.9 km
B*
1.7847e-4
RAAN
226.6925°
Arg perigee
89.2778°
Mean anomaly
270.8393°
Rev number
22,715

§ Raw data

STARLINK-38231 52336U 22045F   26144.92294944  .00002552  00000+0  17847-3 0  99952 52336  53.2126 226.6925 0001559  89.2778 270.8393 15.08821119227158

JSON: /api/v1/satellites/52336 · /tle

For live sub-satellite position, see the globe view (requires WebGL).

§ Visibility from observer

Set your observer location to see the next 7 days of passes ≥ 10°. The values pass through the URL so the page stays shareable.

No JS? Fill the form by hand. The geolocation button needs JavaScript.